TimeCST,TemperatureF,Dew PointF,Humidity,Sea Level PressureIn,VisibilityMPH,Wind Direction,Wind SpeedMPH,Gust SpeedMPH,PrecipitationIn,Events,Conditions,WindDirDegrees,DateUTC
12:15 AM,21.2,17.6,86,29.79,10.0,NNE,10.4,-,N/A,,Partly Cloudy,20,2013-02-04 06:15:00
12:35 AM,19.4,17.6,93,29.78,10.0,NE,10.4,-,N/A,,Clear,40,2013-02-04 06:35:00
12:55 AM,19.4,15.8,86,29.79,10.0,NNE,13.8,-,N/A,,Scattered Clouds,20,2013-02-04 06:55:00
1:15 AM,19.4,17.6,93,29.80,10.0,NNE,17.3,-,N/A,,Overcast,30,2013-02-04 07:15:00
1:35 AM,21.2,17.6,86,29.80,10.0,NNE,16.1,-,N/A,,Overcast,30,2013-02-04 07:35:00
1:55 AM,19.4,17.6,93,29.80,10.0,NNE,17.3,-,N/A,,Overcast,30,2013-02-04 07:55:00
2:15 AM,19.4,17.6,93,29.81,10.0,NE,18.4,-,N/A,,Overcast,40,2013-02-04 08:15:00
2:35 AM,19.4,17.6,93,29.82,10.0,NNE,19.6,-,N/A,Snow,Light Snow,20,2013-02-04 08:35:00
2:55 AM,19.4,15.8,86,29.83,10.0,NNE,15.0,-,N/A,,Overcast,30,2013-02-04 08:55:00
3:15 AM,19.4,15.8,86,29.83,10.0,NNE,16.1,23.0,N/A,,Overcast,30,2013-02-04 09:15:00
4:55 AM,15.8,12.2,86,29.87,10.0,NNE,18.4,-,N/A,,Overcast,20,2013-02-04 10:55:00
5:15 AM,14.0,12.2,93,29.88,10.0,NNE,16.1,23.0,N/A,Snow,Light Snow,20,2013-02-04 11:15:00
5:35 AM,14.0,10.4,86,29.89,10.0,North,19.6,26.5,N/A,,Freezing Rain,10,2013-02-04 11:35:00
5:55 AM,14.0,10.4,86,29.90,10.0,NNE,19.6,27.6,N/A,,Freezing Rain,20,2013-02-04 11:55:00
6:15 AM,14.0,10.4,86,29.91,10.0,NNE,16.1,21.9,N/A,Snow,Light Snow,20,2013-02-04 12:15:00
6:35 AM,14.0,10.4,86,29.92,10.0,NNE,15.0,21.9,N/A,,Freezing Rain,20,2013-02-04 12:35:00
6:55 AM,14.0,10.4,86,29.93,10.0,North,11.5,20.7,N/A,Rain,Freezing Rain,10,2013-02-04 12:55:00
7:15 AM,14.0,8.6,79,29.94,10.0,North,13.8,19.6,N/A,Rain,Freezing Rain,10,2013-02-04 13:15:00
7:35 AM,14.0,8.6,79,29.94,10.0,NNE,13.8,-,N/A,,Overcast,20,2013-02-04 13:35:00
7:55 AM,14.0,8.6,79,29.95,10.0,NNE,16.1,-,N/A,,Overcast,20,2013-02-04 13:55:00
8:15 AM,12.2,8.6,85,29.95,8.0,NNE,13.8,20.7,N/A,Rain,Freezing Rain,20,2013-02-04 14:15:00
8:35 AM,12.2,8.6,85,29.97,5.0,North,12.7,18.4,N/A,Snow,Light Snow,10,2013-02-04 14:35:00
8:55 AM,12.2,6.8,79,29.95,7.0,NNE,12.7,-,N/A,Rain,Freezing Rain,30,2013-02-04 14:55:00
9:15 AM,12.2,6.8,79,29.96,5.0,North,11.5,-,N/A,Snow,Light Snow,10,2013-02-04 15:15:00
9:35 AM,12.2,8.6,85,29.98,9.0,North,9.2,16.1,N/A,,Overcast,10,2013-02-04 15:35:00
9:55 AM,14.0,8.6,79,29.99,8.0,North,10.4,-,N/A,Rain,Freezing Rain,10,2013-02-04 15:55:00
10:15 AM,14.0,8.6,79,30.00,9.0,North,9.2,-,N/A,Rain,Freezing Rain,10,2013-02-04 16:15:00
10:35 AM,15.8,8.6,73,30.01,9.0,North,9.2,-,N/A,,Mostly Cloudy,360,2013-02-04 16:35:00
10:55 AM,15.8,8.6,73,30.01,10.0,NNE,10.4,18.4,N/A,,Scattered Clouds,20,2013-02-04 16:55:00
11:15 AM,15.8,10.4,79,30.00,10.0,NNE,10.4,-,N/A,,Scattered Clouds,30,2013-02-04 17:15:00
11:35 AM,17.6,8.6,68,30.00,10.0,NNE,10.4,-,N/A,,Scattered Clouds,30,2013-02-04 17:35:00
11:55 AM,17.6,10.4,73,29.98,10.0,ENE,6.9,-,N/A,,Scattered Clouds,60,2013-02-04 17:55:00
12:15 PM,17.6,10.4,73,29.97,10.0,Variable,5.8,-,N/A,,Partly Cloudy,0,2013-02-04 18:15:00
12:35 PM,19.4,10.4,68,29.95,10.0,NE,5.8,-,N/A,,Clear,50,2013-02-04 18:35:00
12:55 PM,19.4,10.4,68,29.95,10.0,NNE,6.9,-,N/A,,Clear,30,2013-02-04 18:55:00
1:15 PM,19.4,12.2,74,29.96,10.0,NNE,6.9,-,N/A,,Clear,20,2013-02-04 19:15:00
1:35 PM,21.2,10.4,63,29.97,10.0,North,4.6,11.5,N/A,,Clear,360,2013-02-04 19:35:00
1:55 PM,21.2,10.4,63,29.97,10.0,NNW,4.6,-,N/A,,Clear,330,2013-02-04 19:55:00
2:15 PM,21.2,12.2,68,29.96,10.0,Variable,4.6,-,N/A,,Clear,0,2013-02-04 20:15:00
2:35 PM,21.2,10.4,63,29.96,10.0,North,5.8,-,N/A,,Clear,350,2013-02-04 20:35:00
2:55 PM,21.2,12.2,68,29.96,10.0,North,4.6,-,N/A,,Clear,350,2013-02-04 20:55:00
3:15 PM,21.2,12.2,68,29.95,10.0,NE,3.5,-,N/A,,Clear,50,2013-02-04 21:15:00
3:35 PM,21.2,12.2,68,29.94,10.0,NNE,4.6,-,N/A,,Clear,30,2013-02-04 21:35:00
3:55 PM,21.2,12.2,68,29.95,10.0,North,5.8,-,N/A,,Clear,350,2013-02-04 21:55:00
4:15 PM,21.2,12.2,68,29.95,10.0,North,4.6,-,N/A,,Clear,360,2013-02-04 22:15:00
4:35 PM,21.2,12.2,68,29.94,10.0,Calm,Calm,-,N/A,,Scattered Clouds,0,2013-02-04 22:35:00
4:55 PM,21.2,12.2,68,29.92,10.0,Calm,Calm,-,N/A,,Partly Cloudy,0,2013-02-04 22:55:00
5:15 PM,21.2,12.2,68,29.91,10.0,Calm,Calm,-,N/A,,Clear,0,2013-02-04 23:15:00
5:35 PM,21.2,14.0,74,29.92,10.0,SSE,4.6,-,N/A,,Clear,160,2013-02-04 23:35:00
5:55 PM,21.2,14.0,74,29.92,10.0,SE,3.5,-,N/A,,Partly Cloudy,130,2013-02-04 23:55:00
6:15 PM,21.2,14.0,74,29.91,10.0,South,4.6,-,N/A,,Mostly Cloudy,170,2013-02-05 00:15:00
6:35 PM,21.2,15.8,80,29.89,10.0,South,8.1,-,N/A,Snow,Light Snow,180,2013-02-05 00:35:00
6:55 PM,21.2,15.8,80,29.88,10.0,SSE,6.9,-,N/A,,Mostly Cloudy,160,2013-02-05 00:55:00
7:15 PM,21.2,15.8,80,29.87,10.0,South,9.2,-,N/A,Snow,Light Snow,170,2013-02-05 01:15:00
7:35 PM,21.2,15.8,80,29.86,10.0,South,10.4,-,N/A,,Partly Cloudy,180,2013-02-05 01:35:00
7:55 PM,21.2,15.8,80,29.85,10.0,South,10.4,-,N/A,Snow,Light Snow,180,2013-02-05 01:55:00
8:15 PM,21.2,15.8,80,29.85,10.0,South,11.5,-,N/A,,Overcast,180,2013-02-05 02:15:00
8:35 PM,21.2,17.6,86,29.85,10.0,South,11.5,-,N/A,,Overcast,180,2013-02-05 02:35:00
8:55 PM,21.2,17.6,86,29.85,10.0,South,10.4,-,N/A,,Overcast,190,2013-02-05 02:55:00
9:15 PM,23.0,17.6,80,29.84,10.0,South,13.8,-,N/A,,Overcast,190,2013-02-05 03:15:00
9:35 PM,23.0,17.6,80,29.85,10.0,SSW,12.7,-,N/A,,Overcast,200,2013-02-05 03:35:00
9:55 PM,23.0,17.6,80,29.84,10.0,SSW,15.0,-,N/A,,Overcast,200,2013-02-05 03:55:00
10:15 PM,23.0,17.6,80,29.83,10.0,SSW,15.0,-,N/A,,Overcast,200,2013-02-05 04:15:00
10:35 PM,23.0,17.6,80,29.83,10.0,South,12.7,-,N/A,,Overcast,190,2013-02-05 04:35:00
10:55 PM,23.0,19.4,86,29.83,10.0,SSW,13.8,19.6,N/A,,Overcast,200,2013-02-05 04:55:00
11:15 PM,23.0,19.4,86,29.84,10.0,SSW,11.5,-,N/A,,Mostly Cloudy,200,2013-02-05 05:15:00
11:35 PM,23.0,19.4,86,29.82,10.0,South,15.0,-,N/A,,Overcast,190,2013-02-05 05:35:00
11:55 PM,23.0,19.4,86,29.82,10.0,South,12.7,-,N/A,,Overcast,190,2013-02-05 05:55:00